Regional Weather Roundup
Issued by NWS

Home | Current Version | Previous Version | Graphics & Text | Print | Product List | Glossary On
Versions: 1 2 3 4 5 6 7 8 9 10 11 12 13 14 15 16 17 18 19 20 21 22 23 24 25 26 27 28 29 30 31 32 33 34 35 36 37 38 39 40 41 42 43 44 45 46 47 48 49 50
000
ASUS44 KMEG 230300
RWRTN
TENNESSEE HOURLY STATE WEATHER ROUNDUP
NATIONAL WEATHER SERVICE MEMPHIS TN
900 PM CST WED NOV 22 2017

TNZ002-004-019-021-049-052-054-088>092-230400-
WEST TENNESSEE

CITY           SKY/WX    TMP DP  RH WIND       PRES   REMARKS
MEMPHIS INTL   CLEAR     37  26  64 N8        30.27R WCI  31
NWS MEMPHIS      N/A     35 N/A N/A MISG        N/A
JACKSON        CLEAR     32  24  72 N5        30.27R WCI  27
DYERSBURG      CLEAR     32  26  78 CALM      30.30R
$$

TNZ008-025-027-028-033-062-065-066-230400-
NORTH MIDDLE TENNESSEE

CITY           SKY/WX    TMP DP  RH WIND       PRES   REMARKS
NASHVILLE      CLEAR     38  24  57 N5        30.24F WCI  34
CLARKSVILLE    CLEAR     31  21  66 N8        30.27R WCI  23
SMYRNA         CLEAR     34  24  67 N7        30.25F WCI  28
CROSSVILLE     CLEAR     33  23  66 NE6       30.17F WCI  28
$$

TNZ061-075-076-078-094-096-097-230400-
SOUTH MIDDLE TENNESSEE

CITY           SKY/WX    TMP DP  RH WIND       PRES   REMARKS
WINCHESTER     CLEAR     36  27  69 CALM      30.20R
$$

TNZ017-018-042-046-047-230400-
NORTHEAST TENNESSEE

CITY           SKY/WX    TMP DP  RH WIND       PRES   REMARKS
TRI CITIES     CLEAR     33  26  75 CALM      30.18S
$$

TNZ012-013-036-069-073-074-230400-
CENTRAL EAST TENNESSEE

CITY           SKY/WX    TMP DP  RH WIND       PRES   REMARKS
KNOXVILLE      NOT AVBL
OAK RIDGE      CLEAR     39  26  59 CALM      30.19R
$$

TNZ083-085-099-230400-
SOUTHEAST TENNESSEE

CITY           SKY/WX    TMP DP  RH WIND       PRES   REMARKS
CHATTANOOGA    CLEAR     41  27  57 VRB6      30.17R
$$

SKY/WX REPORTED AS FAIR MEANS FEW OR NO CLOUDS BELOW
12 THOUSAND FEET.




USA.gov is the U.S. government's official web portal to all federal, state and local government web resources and services.